Tracking 17925 objects as of 22-January-2017
HD Live streaming from Space Station
objects crossing your sky now

COSMOS 2251 DEB

Track COSMOS 2251 DEB now!
10-day predictions


NORAD ID: 34781
Int'l Code: 1993-036AAJ
Perigee: 356.0 km
Apogee: 376.1 km
Inclination: 74.0 °
Period: 91.7 minutes
Semi major axis: 6737 km
RCS: 0.0067 m2 (small)
Launch date: June 16, 1993
Source: Commonwealth of Independent States (former USSR) (CIS)
Launch site: PLESETSK MISSILE AND SPACE COMPLEX (PKMTR)

Note: This is SATELLITE DEBRIS
Your satellite tracking list
Your tracking list is empty





NASA's NSSDC Master Catalog

Two Line Element Set (TLE):
1 34781U 93036AAJ 17021.47534554  .00601726  00000-0  46059-2 0  9990
2 34781  74.0155 173.6466 0014894  22.2553 337.9313 15.70166842419817
Source of the keplerian elements: AFSPC